JTV YMEN-YMEN

Flight info

Callsign JTV
Flight time N/A
Altitude 4000
Route EN
Aircraft C310/L-SDFGR/S

Departure

Time 2026-04-21 06:04
Airport Melbourne Essendon Airport (YMEN)

Arrival

Time N/A
Airport Melbourne Essendon Airport (YMEN)
Time Latitude Longitude Altitude Speed Heading
2026-04-21 06:04 -38.01184 144.79190 4945 ft 142 kts 63°
2026-04-21 06:04 -38.00718 144.80250 4958 ft 139 kts 44°
2026-04-21 06:05 -38.00148 144.80585 4979 ft 105 kts
2026-04-21 06:05 -37.99376 144.80528 5008 ft 132 kts 346°
2026-04-21 06:05 -37.98363 144.80235 5009 ft 165 kts 347°
2026-04-21 06:05 -37.97160 144.80119 5004 ft 183 kts
2026-04-21 06:06 -37.95851 144.80347 4996 ft 193 kts 10°
2026-04-21 06:06 -37.94527 144.80763 4993 ft 198 kts 13°
2026-04-21 06:06 -37.93206 144.81273 4993 ft 201 kts 13°
2026-04-21 06:06 -37.91882 144.81841 4995 ft 202 kts 15°
2026-04-21 06:07 -37.90528 144.82410 4994 ft 204 kts 17°
2026-04-21 06:07 -37.89176 144.82985 4998 ft 204 kts 15°
2026-04-21 06:07 -37.87839 144.83572 4998 ft 204 kts 14°
2026-04-21 06:07 -37.86503 144.84186 5001 ft 205 kts 18°
2026-04-21 06:08 -37.85144 144.84749 4872 ft 210 kts 15°
2026-04-21 06:08 -37.83795 144.85355 4633 ft 207 kts 15°
2026-04-21 06:08 -37.82418 144.85933 4386 ft 206 kts 16°
2026-04-21 06:08 -37.81047 144.86511 4134 ft 206 kts 16°
2026-04-21 06:09 -37.79688 144.87100 3884 ft 205 kts 15°
2026-04-21 06:09 -37.78379 144.87677 3574 ft 173 kts 17°
2026-04-21 06:09 -37.77527 144.88115 3011 ft 112 kts 31°
2026-04-21 06:09 -37.77152 144.88771 2586 ft 99 kts 48°
2026-04-21 06:10 -37.76801 144.89145 2054 ft 91 kts 24°